This demonstration page uses our WeatherBlox Daily Observations layout. Learn more.

Left ArrowRight Arrow

41.12389, -100.76542

Hourly Observations for September 12, 2020

Temp ( °F °C ) Dew Point ( °F °C ) Humidity (%) Winds ( mph kmh ) Pressure ( in mb ) Visibility ( mi km ) Precip ( " mm )
12:53 am 00:53 Mostly Cloudy 57 13.9 47 8.3 69 69 W 8 13 29.94 1014 10 16 0.00 0.00
1:53 am 01:53 Clear 52 11.1 46 7.8 80 80 WSW 5 7 29.95 1014 10 16 0.00 0.00
2:53 am 02:53 Clear 50 10 45 7.2 83 83 SW 5 7 29.94 1014 10 16 0.00 0.00
3:53 am 03:53 Mostly Clear 46 7.8 42 5.6 86 86 NW 6 9 29.94 1014 10 16 0.00 0.00
4:53 am 04:53 Clear 44 6.7 41 5 89 89 NW 6 9 29.95 1014 10 16 0.00 0.00
5:53 am 05:53 Clear 42 5.6 40 4.4 92 92 NW 6 9 29.95 1014 10 16 0.00 0.00
6:53 am 06:53 Clear 43 6.1 40 4.4 89 89 NW 7 11 29.96 1015 10 16 0.00 0.00
7:53 am 07:53 Sunny 44 6.7 41 5 89 89 NW 5 7 29.98 1015 10 16 0.00 0.00
8:53 am 08:53 Sunny 50 10 46 7.8 86 86 WNW 6 9 29.99 1016 10 16 0.00 0.00
9:53 am 09:53 Sunny 55 12.8 48 8.9 77 77 WNW 7 11 29.99 1016 10 16 0.00 0.00
10:53 am 10:53 Cloudy 61 16.1 50 10 67 67 NW 7 11 29.99 1016 10 16 0.00 0.00
11:53 am 11:53 Mostly Sunny 66 18.9 50 10 56 56 WNW 10 17 29.98 1015 10 16 0.00 0.00
12:53 pm 12:53 Sunny 70 21.1 50 10 49 49 WNW 9 15 29.97 1015 10 16 0.00 0.00
1:53 pm 13:53 Sunny 72 22.2 48 8.9 43 43 WNW 12 19 29.97 1015 10 16 0.00 0.00
2:53 pm 14:53 Partly Cloudy 74 23.3 50 10 43 43 NW 10 17 29.97 1015 10 16 0.00 0.00
3:53 pm 15:53 Sunny 76 24.4 49 9.4 39 39 WNW 16 26 29.96 1015 10 16 0.00 0.00
4:53 pm 16:53 Mostly Sunny 76 24.4 49 9.4 39 39 NW 13 20 29.96 1015 10 16 0.00 0.00
5:53 pm 17:53 Mostly Sunny 78 25.6 49 9.4 36 36 NW 10 17 29.98 1015 10 16 0.00 0.00
6:53 pm 18:53 Sunny 76 24.4 50 10 40 40 NNW 8 13 29.99 1016 10 16 0.00 0.00
7:53 pm 19:53 Sunny 68 20 52 11.1 57 57 Calm 30.01 1016 10 16 0.00 0.00
8:53 pm 20:53 Clear 62 16.7 54 12.2 75 75 Calm 30.04 1017 10 16 0.00 0.00
9:53 pm 21:53 Clear 56 13.3 51 10.6 84 84 Calm 30.06 1018 10 16 0.00 0.00
10:53 pm 22:53 Clear 53 11.7 48 8.9 83 83 Calm 30.06 1018 10 16 0.00 0.00
11:53 pm 23:53 Clear 51 10.6 47 8.3 86 86 Calm 30.07 1018 10 16 0.00 0.00

Powered by AerisWeather